This demonstration page uses our WeatherBlox Daily Observations layout. Learn more.

Left ArrowRight Arrow

39.92423, -83.80882

Hourly Observations for November 22, 2016

Temp ( °F °C ) Dew Point ( °F °C ) Humidity (%) Winds ( mph kmh ) Pressure ( in mb ) Visibility ( mi km ) Precip ( " mm )
1:56 am 01:56 Clear 25 -3.9 23 -5 92 92 NW 3 6 30.30 1026 10 16 0.00 0.00
2:56 am 02:56 Clear 23 -5 21 -6.1 92 92 W 6 9 30.33 1027 7 11 0.00 0.00
3:56 am 03:56 Clear 22 -5.6 20 -6.7 92 92 WNW 3 6 30.33 1027 8 13 0.00 0.00
4:56 am 04:56 Clear 22 -5.6 21 -6.1 96 96 Calm 30.33 1027 7 11 0.00 0.00
5:56 am 05:56 Clear with Mist and Fog 23 -5 22 -5.6 96 96 Calm 30.33 1027 6 10 0.00 0.00
6:56 am 06:56 Clear with Mist and Fog 22 -5.6 20 -6.7 92 92 Calm 30.35 1028 4 6 0.00 0.00
7:47 am 07:47 Sunny with Mist and Fog 21 -6 21 -6 100 100 Calm 30.39 1029 3 4 0.00 0.00
7:54 am 07:54 Sunny with Mist and Fog 23 -5 21 -6 93 93 Calm 30.39 1029 5 8 0.00 0.00
7:56 am 07:56 Sunny with Mist and Fog 23 -5 22 -5.6 96 96 N 3 6 30.37 1028 5 8 0.00 0.00
8:56 am 08:56 Sunny with Mist and Fog 27 -2.8 25 -3.9 92 92 Calm 30.38 1029 6 10 0.00 0.00
9:56 am 09:56 Sunny 30 -1.1 28 -2.2 92 92 E 5 7 30.38 1029 9 14 0.00 0.00
10:56 am 10:56 Sunny 34 1.1 26 -3.3 73 73 E 5 7 30.39 1029 10 16 0.00 0.00
11:56 am 11:56 Sunny 35 1.7 25 -3.9 67 67 Calm 30.37 1029 10 16 0.00 0.00
12:56 pm 12:56 Sunny 38 3.3 26 -3.3 62 62 Calm 30.36 1028 10 16 0.00 0.00
1:56 pm 13:56 Sunny 40 4.4 26 -3.3 58 58 Calm 30.35 1028 10 16 0.00 0.00
2:56 pm 14:56 Sunny 42 5.6 26 -3.3 53 53 VRB 3 6 30.34 1027 10 16 0.00 0.00
3:56 pm 15:56 Sunny 43 6.1 23 -5 45 45 SE 5 7 30.33 1027 10 16 0.00 0.00
4:56 pm 16:56 Sunny 39 3.9 24 -4.4 55 55 SSE 5 7 30.33 1027 10 16 0.00 0.00
5:56 pm 17:56 Clear 37 2.8 25 -3.9 62 62 SE 5 7 30.33 1027 10 16 0.00 0.00
6:56 pm 18:56 Clear 33 0.6 25 -3.9 72 72 E 6 9 30.34 1027 10 16 0.00 0.00
7:56 pm 19:56 Clear 29 -1.7 24 -4.4 82 82 ENE 7 11 30.34 1028 10 16 0.00 0.00
8:56 pm 20:56 Clear 26 -3.3 22 -5.6 84 84 E 8 13 30.33 1027 10 16 0.00 0.00
9:56 pm 21:56 Clear 29 -1.7 23 -5 78 78 E 7 11 30.32 1027 10 16 0.00 0.00
10:56 pm 22:56 Clear 27 -2.8 22 -5.6 81 81 E 12 19 30.30 1026 10 16 0.00 0.00
11:56 pm 23:56 Clear 27 -2.8 23 -5 85 85 E 8 13 30.32 1027 10 16 0.00 0.00

Powered by AerisWeather